Location: Gu�tanj
(46.5431°N, 14.9692°E)
Time: 05:31:57
(UTC+00:00)

CZ-4 R/B - Pass Details

Date: 03 March 2021
Orbit: 532 x 597 km, 97.7° (Epoch: 18 April)

Event Time Altitude Azimuth Distance (km) Brightness Sun altitude
Rises 18:01:49 0° 183° (S) 2,666 4.8 -13.3°
Reaches altitude 10° 18:04:00 10° 191° (S) 1,784 4.0 -13.7°
Maximum altitude 18:07:38 40° 262° (W) 810 2.8 -14.3°
Drops below altitude 10° 18:11:21 10° 333° (NNW) 1,820 4.4 -14.9°
Sets 18:13:36 0° 341° (NNW) 2,728 5.2 -15.3°
